FENGYUN 1C DEB, 35233

Orbit data source: Space-Track

FENGYUN 1C DEB, 35233 is space debris in SSO originally from a launch on Mon, 10 May 1999 UTC launched from the Taiyaun Space Center, China (TSC). Fengyun 1C debris stems from the Chinese weather satellite Fengyun-1C, which was intentionally destroyed by a Chinese anti-satellite missile in 2007. This event dramatically increased the amount of space debris, with thousands of trackable fragments posing hazards to satellites and human spaceflight. The Fengyun 1C debris cloud has become a focal point in discussions about space sustainability and the need for international regulations to prevent the creation of new debris.

Loading next visibility...
Identifier
35233, 1999-025DQR
Orbit
SSO
Country
Flag of CNCN / PRC
Related business
Manufacturer
Unknown
Mission
Spacecraft
Bus & Motor
Unknown
Mass
Unknown
Launch date (UTC)
1999-05-10 (27 years ago)
Launch vehicle
Unknown
Launch site
Taiyaun Space Center, China (TSC)
Object type
Payload
Rocket body
Debris
Shape & HBR
Unknown shape, 0.1 m
Radar Cross Section
Small (<0.1 m²)

Expand to show TLE details & history
Last TLE update: 1 week ago

TLE from 1 week ago
0 FENGYUN 1C DEB
1 35233U 99025DQR 26151.24685025  .00008145  00000-0  23602-2 0  9991
2 35233  98.7719 260.2895 0041447 115.9208 274.8157 14.44188868936214
Epoch: 2026-05-31T05:55Z
TLE epoch observation values (Epoch: 2026-05-31T05:55:27.861Z)
Latitude
29.92492°
Longitude
-82.39623°
Altitude
746.095 km
Speed
7.486 km/s
True Right ascension
17h 00m 53s
True Declination
29° 46' 34"
Sunlit
Object was in full shadow at epoch
Visualization orbit readout
Latitude
Unknown
Longitude
Unknown
Altitude
Unknown
Speed
Unknown
Apparent Right ascension
Unknown
Apparent Declination
Unknown
Sunlit
N/A
Visualization observer readout
Local Sidereal Time
20:52:43
Azimuth
Unknown
Elevation
Unknown
Doppler factor
Unknown
Orbital elements
Apogee altitude
771.331 km
Perigee altitude
712.311 km
Semi-major axis
7,119.958 km
Eccentricity
0.00414
Inclination
98.7719°
RAAN
260.2895°
Arg. of periapsis
115.9208°
True anomaly
274.34223°
Mean anomaly
274.8157°
Eccentric anomaly
274.57898°
Mean motion
3.61266 °/min
Orbital period
99.65 mins
BSTAR
0.0023602
Loading maneuver chart data...
Computing Atmospheric mass density...
Loading historical data...
Loading historical data...
Loading historical data...
Loading historical data...
Loading historical data...
Loading historical data...
Loading historical data...

Documentation

Showing up to 5 results
|